EW6608 Weather Reports


Display with metric or nautical units.
time (UTC)temp
F
wind
direction
speed
MPH
gust
MPH
rain 1hr
in
rain 24hr
in
rain mn
in
humidity
%
barometer
mb
20181216004504 42 231 0.0 0.0 0.00 1.82 1.02 85 1017.2
20181216003003 42 231 0.0 0.0 0.00 1.82 1.02 85 1017.2
20181216001759 42 231 0.0 0.0 0.00 1.82 1.02 85 1017.1
20181216000130 42 231 0.0 0.0 0.00 1.85 1.02 85 1016.9
20181215234657 43 231 0.0 0.0 0.00 1.85 1.02 86 1016.9
20181215233152 43 231 0.0 0.0 0.00 1.85 1.02 86 1016.9
20181215231646 43 231 0.0 0.0 0.00 1.85 1.02 86 1016.7
20181215230150 43 231 0.0 0.0 0.00 1.88 1.02 87 1016.6
20181215224628 44 231 0.0 0.0 0.00 1.88 1.02 87 1016.3
20181215223214 44 231 0.0 0.0 0.00 1.88 1.02 88 1016.1
20181215221616 44 231 0.0 0.0 0.00 1.88 1.02 88 1015.9
20181215220117 45 231 0.0 0.0 0.00 1.91 1.02 88 1015.3
20181215214607 45 231 0.0 0.0 0.00 1.91 1.02 88 1015.0
20181215213056 46 230 0.0 0.0 0.00 1.91 1.02 88 1014.4
20181215211706 47 230 0.0 0.0 0.00 1.91 1.02 88 1014.2
20181215210054 47 230 0.0 0.0 0.00 1.92 1.02 90 1014.1
20181215204621 44 230 0.0 0.0 0.00 1.92 1.02 91 1014.1
20181215203118 43 230 0.0 0.0 0.00 1.92 1.02 91 1014.1
20181215201606 42 230 0.0 0.0 0.00 1.92 1.02 91 1014.0
20181215200056 42 230 0.0 0.0 0.00 1.92 1.02 91 1013.9
20181215194605 42 230 0.0 0.0 0.00 1.92 1.02 91 1013.9
20181215193101 42 230 0.0 0.0 0.00 1.92 1.02 91 1013.9
20181215191621 42 230 0.0 0.0 0.00 1.92 1.02 91 1013.9
20181215190125 42 230 0.0 0.0 0.00 1.92 1.02 91 1013.7
20181215184559 42 231 0.0 0.0 0.01 1.92 1.02 91 1013.9
20181215183052 42 230 0.0 0.0 0.02 1.92 1.02 91 1014.1
20181215181549 42 230 0.0 0.0 0.02 1.92 1.02 91 1014.1
20181215180056 42 230 0.0 0.0 0.03 1.94 1.02 91 1014.2
20181215174541 42 229 0.0 0.0 0.03 1.93 1.01 91 1014.1
20181215173045 42 230 0.0 0.0 0.04 1.92 1.00 91 1014.5
20181215171543 42 230 0.0 0.0 0.06 1.92 1.00 91 1014.4
20181215170054 43 230 0.0 0.0 0.07 1.92 0.99 91 1014.6
20181215164533 42 229 0.0 0.0 0.07 1.91 0.98 91 1014.6
20181215163037 42 229 0.0 0.0 0.05 1.89 0.96 91 1014.5
20181215161554 42 229 0.0 0.0 0.04 1.87 0.94 91 1014.9
20181215160049 42 229 0.0 0.0 0.05 1.85 0.92 91 1015.1
20181215154534 42 229 0.0 0.0 0.09 1.84 0.91 91 1014.6
20181215153047 42 229 0.0 0.0 0.12 1.84 0.91 91 1014.9
20181215151531 42 229 0.0 0.0 0.16 1.83 0.90 91 1014.4
20181215150033 43 229 0.0 0.0 0.17 1.80 0.87 91 1014.4
20181215144519 43 230 0.0 0.0 0.17 1.75 0.82 91 1014.3
20181215143036 43 230 0.0 0.0 0.19 1.72 0.79 91 1014.1
20181215141521 43 230 0.0 0.0 0.19 1.67 0.74 91 1013.9
20181215140028 44 229 0.0 0.0 0.19 1.65 0.70 91 1013.8
20181215134538 44 229 0.0 0.0 0.16 1.60 0.65 91 1013.6
20181215133012 44 229 0.0 0.0 0.11 1.55 0.60 91 1013.4
20181215131522 44 229 0.0 0.0 0.06 1.50 0.55 91 1013.3
20181215130010 44 229 0.0 0.0 0.03 1.46 0.51 91 1013.2
20181215124512 45 229 0.0 0.0 0.01 1.44 0.49 91 1013.1
20181215123029 45 229 0.0 0.0 0.02 1.44 0.49 91 1013.0
20181215121504 45 229 0.0 0.0 0.02 1.44 0.49 91 1012.9
20181215120009 46 229 0.0 0.0 0.01 1.45 0.48 91 1012.7
20181215114502 46 229 0.0 0.0 0.01 1.45 0.48 91 1012.5
20181215113001 45 229 0.0 0.0 0.00 1.44 0.47 91 1012.1
20181215110154 45 229 0.0 0.0 0.01 1.45 0.47 91 1011.8
20181215104937 45 229 0.0 0.0 0.04 1.45 0.47 91 1011.7
20181215103229 45 229 0.0 0.0 0.06 1.45 0.47 91 1011.5
20181215101702 45 229 0.0 0.0 0.09 1.45 0.47 91 1011.1
20181215100223 45 229 0.0 0.0 0.11 1.47 0.46 91 1010.8
20181215094719 45 229 0.0 0.0 0.10 1.44 0.43 91 1010.7
20181215093136 45 229 0.0 0.0 0.12 1.42 0.41 91 1010.5
20181215091707 45 229 0.0 0.0 0.13 1.39 0.38 91 1011.1
20181215090123 45 229 0.0 0.0 0.14 1.38 0.35 91 1012.3
20181215084620 45 229 0.0 0.0 0.16 1.36 0.33 91 1012.5
20181215083217 45 229 0.0 0.0 0.16 1.32 0.28 91 1012.7
20181215081609 45 229 0.0 0.0 0.15 1.27 0.24 91 1012.9
20181215080101 45 229 0.0 0.0 0.14 1.26 0.21 91 1013.0
20181215074638 45 229 0.0 0.0 0.12 1.22 0.17 91 1013.0
20181215073217 45 229 0.0 0.0 0.09 1.17 0.12 91 1012.7
20181215071637 45 229 0.0 0.0 0.08 1.13 0.09 91 1012.6
20181215070119 45 229 0.0 0.0 0.08 1.12 0.07 91 1012.6
20181215064616 45 229 0.0 0.0 0.08 1.10 0.05 91 1012.5
20181215063059 45 229 0.0 0.0 0.08 1.07 0.02 91 1012.6
20181215061626 45 229 0.0 0.0 0.16 1.06 0.01 91 1012.9
20181215060108 45 229 0.0 0.0 0.24 1.04 1.04 91 1013.0
20181215054534 45 229 0.0 0.0 0.30 1.01 1.01 91 1013.2
20181215053035 44 229 0.0 0.0 0.36 0.99 0.99 91 1013.3
20181215051601 44 229 0.0 0.0 0.31 0.89 0.89 91 1013.8
20181215050115 44 229 0.0 0.0 0.28 0.80 0.80 91 1013.8
20181215044530 44 229 0.0 0.0 0.26 0.71 0.71 91 1014.1
20181215043055 44 229 0.0 0.0 0.21 0.63 0.63 91 1014.4
20181215041549 43 229 0.0 0.0 0.17 0.57 0.57 91 1014.4
20181215040023 44 229 0.0 0.0 0.13 0.51 0.51 91 1014.5
20181215034529 44 229 0.0 0.0 0.08 0.45 0.45 91 1014.6
20181215033026 44 229 0.0 0.0 0.05 0.42 0.42 91 1014.7
20181215031522 44 228 0.0 0.0 0.05 0.41 0.41 91 1014.6
20181215030032 44 228 0.0 0.0 0.02 0.38 0.38 91 1014.7
20181215024605 44 228 0.0 0.0 0.02 0.37 0.37 91 1014.6
20181215023018 44 228 0.0 0.0 0.04 0.37 0.37 91 1014.6
20181215021542 45 228 0.0 0.0 0.06 0.36 0.36 91 1014.6
20181215020031 46 228 0.0 0.0 0.08 0.35 0.35 91 1014.8
20181215014526 46 227 0.0 0.0 0.10 0.35 0.35 91 1014.9
20181215013038 47 227 0.0 0.0 0.08 0.33 0.33 91 1015.0
20181215011511 47 227 0.0 0.0 0.05 0.30 0.30 91 1015.0
20181215010023 47 227 0.0 0.0 0.02 0.27 0.27 91 1015.1